Vertical_Velocity
-1 1 4 6 -2 -0 2 0 3 4 4 3 3 -0 -2 -2 -1 -1 -1 -1 -1 -2
1 5 5 4 -2 -4 3 2 1 3 1 -0 2 -1 1 -2 -3 1 -1 -1 -2 -2
-0 2 1 0 1 1 -1 2 1 1 -0 -1 -1 1 0 -2 -2 -0 -2 -1 -1 -1
2 1 -3 4 0 3 -1 6 -1 1 1 -0 2 1 -2 -2 -2 -1 -2 0 2 -0
-3 7 3 0 2 4 3 3 1 -1 -0 1 -1 78 6 -6 -8 1 2 2 0 0
4 -3 11 0 2 7 5 -0 -3 -2 -1 -0 -2 19 4 -7 3 0 2 1 0 1
5 -5 3 3 4 -2 -4 -4 -2 -1 -3 -1 32 1 -11 2 -1 -1 2 3 1 -1
-6 -3 5 3 -0 5 3 5 0 -2 -4 7 -1 -0 6 3 -2 -1 2 2 1 -2
-5 -4 6 5 0 3 2 -3 -1 6 -2 22 -5 1 11 -3 -2 -2 -1 -1 -2 -2
8 -6 4 1 -1 0 3 0 -1 8 49 5 1 3 9 5 2 2 0 -2 -0 -3
9 -0 4 -1 3 -1 27 11 9 8 23 29 7 4 11 3 0 -1 0 -1 0 2
0 -4 -6 -0 33 10 33 6 21 2 1 -2 8 2 -3 1 -0 1 2 -1 -2 -0
-4 0 1 -1 8 -2 1 10 4 8 4 -9 2 3 3 -3 -3 4 -2 -4 1 2
13 32 3 20 12 8 2 1 -8 -5 3 3 -1 -4 -4 0 -2 -0 1 1 -1 -7
Height
5699 5701 5704 5709 5711 5711 5712 5714 5714 5716 5716 5717 5717 5717 5715 5715 5713 5712 5711 5708 5706 5702
5683 5685 5690 5696 5700 5700 5702 5704 5705 5706 5706 5706 5706 5706 5706 5705 5704 5703 5700 5698 5696 5692
5666 5669 5674 5681 5684 5688 5691 5694 5695 5695 5696 5697 5696 5696 5696 5695 5694 5693 5690 5688 5685 5681
5651 5656 5659 5665 5670 5675 5679 5682 5685 5687 5688 5688 5687 5688 5686 5685 5685 5683 5679 5676 5673 5669
5634 5638 5644 5651 5657 5663 5669 5672 5675 5677 5678 5679 5680 5672 5672 5672 5674 5671 5668 5665 5661 5657
5616 5624 5630 5638 5646 5653 5657 5662 5664 5667 5668 5669 5669 5666 5665 5665 5662 5659 5657 5653 5649 5643
5600 5610 5618 5626 5635 5641 5646 5650 5654 5656 5658 5657 5651 5656 5655 5653 5648 5648 5646 5641 5636 5630
5592 5603 5609 5618 5627 5634 5639 5643 5646 5647 5648 5647 5647 5648 5645 5643 5639 5637 5633 5628 5623 5617
5589 5598 5605 5613 5622 5627 5632 5636 5638 5640 5640 5636 5639 5638 5635 5634 5630 5625 5620 5616 5609 5603
5587 5593 5601 5608 5615 5621 5626 5630 5631 5629 5627 5630 5628 5629 5625 5621 5618 5613 5608 5602 5596 5589
5583 5591 5597 5604 5609 5615 5617 5623 5622 5623 5623 5620 5618 5618 5615 5612 5607 5601 5596 5589 5582 5574
5586 5591 5597 5602 5604 5610 5611 5613 5613 5613 5614 5615 5611 5608 5605 5601 5595 5588 5582 5574 5568 5560
5586 5593 5597 5601 5602 5603 5606 5606 5607 5605 5605 5603 5602 5599 5595 5589 5582 5575 5568 5560 5551 5544
5588 5588 5595 5596 5596 5599 5600 5599 5601 5600 5599 5597 5593 5589 5583 5575 5567 5560 5552 5545 5536 5528